Погода в Биробиджане

Погода в Биробиджане : погода сейчас, прогноз погоды и архив. Всё, что Вы хотите узнать о погоде в Биробиджане!

Хотите узнать прогноз погоды в Биробиджане? Тогда Вам сюда: Погода в Биробиджане

Поиск расширенной информации на нашем сайте:

Другие новости

Новости СМИ2

Главная страница сайта

Новости сайта

03.07.2017

Напоминаем, что на нашем специализированном сайте Метеоцентр.Азия вы можете получить высокодетализированные автоматические прогнозы погоды по пунктам России, СНГ и мира в авиационном формате (включающие направление и скорость ветра, видимость, явления погоды, количество и форму облачности, нижнюю и верхнюю границу облачности).


Погода в Биробиджане - сегодня

Время (UTC), дата Ветер
(°,м/с) 
Видим.   Явления Облачность Т
(°С)
Тd
(°С)
f(%) Тe
(°С)
Pmin
(гПа)
dP
(гПа)
Po
(мм)
O2
(г/м3)
Тmin Tmax R s Состояние
почвы
18 17.04.18 тихо ()   10 км    10/0 средняя 
[As trans]
+6.9 +2.7 75 +7  1005.7  -0.3  747  293           
00 18.04.18 020 (С) 10 км  {дождь}  6/0 средняя, верхняя 
[Ac trans|Cc]
+9.6 +5.5 76 +11  1007.1  0.4  748  290           
03 18.04.18 300 (СЗ) 20000 м    8/8 600 м кучево-дожд., верхняя 
[Cb cap|Ci fib]
+19.4 +1.9 31 +20  1005.6  -1.1  747  281           
06 18.04.18 280 (З) 20000 м    3/3 600 м кучево-дожд. 
[Cb cap]
+20.7 -6.5 15 +21  1004.2  -1.3  746  280           
12 18.04.18 280 (З) 20000 м    ясно 
+7.9 -6 37 +8  1006.6  1.5  748  293           
15 18.04.18 200 (Ю) 20000 м    ясно 
+5.6 -6.4 42 +6  1007.6  0.8  748  296           
18 18.04.18 020 (С) 20000 м    ясно 
+2.8 -7.3 47 +2  1008.1  0.4  749  299           
00 19.04.18 040 (СВ) 10 км    10/0 верхняя 
[Cs]
+9.5 -1.6 46 +11  1009.7  0.8  750  292           
03 19.04.18 350 (С) 10 км    10/6 600 м кучево-дожд., верхняя 
[Cb cap|Cs]
+13.8 +4 52 +15  1009.5  0.1  750  287           
06 19.04.18 180 (Ю) 10 км    10/6 600 м кучево-дожд., средняя 
[Cb cap|As trans]
+17 +3.4 40 +18  1007.4  -1.9  749  283           
09 19.04.18 180 (Ю) 20000 м    ясно 
+17.6 +3.8 40 +18  1007  -0.4  748  283    +18.2       
12 19.04.18 210 (ЮЗ) 20000 м    ясно 
+9.6 +3.3 65 +9  1009.8  2.5  750  291           
15 19.04.18 190 (Ю) 20000 м    10/0 верхняя 
[Cs]
+8.9 +2.8 66 +9  1010  0.1  750  292           
18 19.04.18 210 (ЮЗ) 20000 м    10/0 средняя 
[As trans]
+9.6 +2.7 62 +10  1010.2  0.1  750  292           
21 19.04.18 030 (СВ) 4000 м  мгла  10/0 средняя 
[As op]
+7.7 +0.9 62 +9  1010.8  0.5  751  294  +7.7        влажная 
00 20.04.18 360 (С) 10 км    10/0 верхняя 
[Cs]
+13.5 +0.9 42 +15  1010.8  0.2  751  288  +7.5         
03 20.04.18 270 (З) 10 км    8/0 верхняя 
[Cc]
+21.6 +0.3 24 +22  1008.4  -2.1  749  280           
06 20.04.18 210 (ЮЗ) 5{11}  10 км    9/6 600 м кучево-дожд., средняя 
[Cb cap|Ac trans]
+20.3 +1.3 28 +20  1005.5  -2.9  747  280           
12 20.04.18 210 (ЮЗ) 6{10}  10 км    10/3 600 м кучево-дожд., средняя 
[Cb cap|Ac und]
+15.5 +7.3 58 +15  1003.9  -0.2  746  283           
15 20.04.18 240 (ЮЗ) 5{12}  10 км    10/4 600 м кучево-дожд., средняя 
[Cb cap|As op]
+12.8 +8.8 77 +12  1002.3  -1.7  745  285           
18 20.04.18 330 (СЗ) 10 км  слаб. ливневой дождь  10/6 600 м кучево-дожд., средняя 
[Cb cap|As op]
+10.2 +7.1 81 +10  1003.5  1.1  745  288           
21 20.04.18 320 (СЗ) 6-10{11}  10 км  {ливн. осадки}  10/0 средняя 
[As op]
+9 +0.8 56 +7  1005.7  2.1  747  291  +9    0.6    влажная 
03 21.04.18 310 (СЗ) 4{14}  20000 м    5/0 средняя, верхняя 
[Ac lent|Cc]
+14.1 -11.1 16 +14  1011.3  751  289           
06 21.04.18 330 (СЗ) 4{11}  20000 м    1/0 верхняя 
[Ci fib]
+15.7 -11.7 14 +16  1012  0.8  752  287           
12 21.04.18 310 (СЗ) 20000 м    ясно 
+9.3 -9.4 26 +9  1019.1  4.1  757  296           
Время (UTC), дата Ветер
(°,м/с) 
Видим.   Явления Облачность Т
(°С)
Тd
(°С)
f(%) Тe
(°С)
Pmin
(гПа)
dP
(гПа)
Po
(мм)
O2
(г/м3)
Тmin Tmax R s Состояние
почвы

Для получения пояснительной информации подведите курсор к названию столбца.

ПОГОДА в Биробиджане - архив

Всё, что Вы хотите узнать о погоде в Биробиджане - удобно и подробно!

Выберите нужную дату (начиная с 1 января 2015* года) и нажмите кнопку "Найти".
Будут отображены архивные сводки погоды по пункту Биробиджан, начиная с указанной даты.


Отображать данные в формате CSV (для использования в таблицах Excel)


Внимание! Наш архив погоды предназначен исключительно для личного некоммерческого использования в познавательных целях. Если Вам необходимы официальные справки о состоянии погоды (для производственных, юридических, коммерческих и т.п. целей), обращайтесь в органы Росгидромета.

*Примечание: данная дата относится к архиву по метеостанциям СССР (Россия, СНГ, Балтия).
Архив по метеостанциям Зарубежной Европы и Азии (кроме Китая) хранится 10 дней, по другим регионам земного шара (Китай, Африка, Америка, Австралия, Океания) - 1 день.

Биробиджан - район местоположения метеостанции


Название, широта, долгота, высота метеостанции:
Биробиджан 48.7°ш. 132.9°д. 80 м над ур. моря [Российская Федерация]

Дополнительная информация

В oтличие oт бoльшинства пoгoдных сайтoв мы публикуем пoдрoбную метеoинфoрмацию в детальнoм прoфессиoнальнoм фoрмате.

Характеристики температуры и влажнoсти вoздуха измеряются на высoте 2 м в тени вдали oт зданий и деревьев.
Скoрoсть ветра измеряется на высoте 10 м (на урoвне рoста челoвека скoрoсть ветра ниже в 1.5-2 раза). Если метеoстанция нахoдится в гoрoде или в лесу, тo скoрoсть ветра занижена на 2-4 м/с пo сравнению с oткрытым местoм. Скoрoсть ветра над акватoриями крупных рек и oзёр, а также на вершинах хoлмoв на 2-5 м/с выше, чем в oбычных услoвиях.
Атмoсфернoе давление в разных тoчках местнoсти мoжет значительнo oтличаться oт давления на метеoстанции, в зависимoсти oт услoвий рельефа (при пoдъёме на 10 м давление пoнижается примернo на 1 мм рт.ст.).